When you browse on this site, cookies collect data to enhance your experience and personalize the content and advertising you see.
Visit our Privacy Policy to learn more. By continuing to use the site, you agree to this use of cookies and data.

Hourly Weather Nashua

Today, 4 July, Saturday

Time Temperature Precipitation Wind Pressure Humidity
00:00 +16°C° 0 mm 1 mps 756 mmHg 93%
01:00 +18°C° 0 mm 1 mps 756 mmHg 94%
02:00 +18°C° 0 mm 1 mps 756 mmHg 93%
03:00 +18°C° 0 mm 1 mps 755 mmHg 92%
04:00 +18°C° 0 mm 1 mps 755 mmHg 91%
05:00 +19°C° 0 mm 1 mps 756 mmHg 87%
06:00 +21°C° 0 mm 1 mps 756 mmHg 82%
07:00 +22°C° 0 mm 1 mps 756 mmHg 78%
08:00 +24°C° 0 mm 1 mps 756 mmHg 71%
09:00 +26°C° 0 mm 1 mps 756 mmHg 64%
10:00 +28°C° 0 mm 1 mps 756 mmHg 58%
11:00 +29°C° 0 mm 1 mps 756 mmHg 53%
12:00 +30°C° 0 mm 1 mps 755 mmHg 48%
13:00 +31°C° 0 mm 1 mps 755 mmHg 44%
14:00 +31°C° 0 mm 1 mps 755 mmHg 44%
15:00 +31°C° 0 mm 1 mps 755 mmHg 44%
16:00 +30°C° 0 mm 2 mps 755 mmHg 45%
17:00 +28°C° 0 mm 2 mps 755 mmHg 55%
18:00 +26°C° 0 mm 2 mps 755 mmHg 65%
19:00 +24°C° 0 mm 2 mps 755 mmHg 76%
20:00 +23°C° 0 mm 2 mps 756 mmHg 81%
21:00 +21°C° 0 mm 2 mps 756 mmHg 87%
22:00 +21°C° 0 mm 1 mps 756 mmHg 92%
23:00 +21°C° 0 mm 1 mps 756 mmHg 93%

Tomorrow, 5 July, Sunday

Time Temperature Precipitation Wind Pressure Humidity
00:00 +20°C° 0 mm 1 mps 756 mmHg 94%
01:00 +20°C° 0 mm 1 mps 756 mmHg 94%
02:00 +20°C° 0 mm 1 mps 756 mmHg 94%
03:00 +19°C° 0 mm 1 mps 756 mmHg 94%
04:00 +19°C° 0 mm 1 mps 756 mmHg 94%
05:00 +20°C° 0 mm 1 mps 756 mmHg 85%
06:00 +22°C° 0 mm 1 mps 756 mmHg 77%
07:00 +23°C° 0 mm 1 mps 756 mmHg 68%
08:00 +24°C° 0 mm 0 mps 756 mmHg 58%
09:00 +27°C° 0 mm 0 mps 756 mmHg 49%
10:00 +29°C° 0 mm 0 mps 756 mmHg 39%
11:00 +30°C° 0 mm 0 mps 756 mmHg 37%
12:00 +33°C° 0 mm 1 mps 755 mmHg 34%
13:00 +34°C° 0 mm 1 mps 755 mmHg 31%
14:00 +33°C° 0 mm 1 mps 755 mmHg 36%
15:00 +32°C° 0 mm 1 mps 755 mmHg 41%
16:00 +30°C° 0 mm 1 mps 754 mmHg 46%
17:00 +29°C° 0 mm 1 mps 755 mmHg 54%
18:00 +27°C° 0 mm 1 mps 755 mmHg 61%
19:00 +25°C° 0 mm 1 mps 755 mmHg 69%
20:00 +24°C° 0.9 mm 1 mps 755 mmHg 78%
21:00 +22°C° 0.9 mm 1 mps 755 mmHg 87%
22:00 +20°C° 0.9 mm 1 mps 755 mmHg 96%
23:00 +19°C° 0 mm 2 mps 755 mmHg 95%

Day after tomorrow, 6 July, Monday

Time Temperature Precipitation Wind Pressure Humidity
00:00 +18°C° 0 mm 2 mps 755 mmHg 95%
01:00 +18°C° 0 mm 2 mps 756 mmHg 94%
02:00 +17°C° 0 mm 2 mps 756 mmHg 95%
03:00 +17°C° 0 mm 2 mps 756 mmHg 95%
04:00 +16°C° 0 mm 2 mps 756 mmHg 95%
05:00 +17°C° 0 mm 2 mps 757 mmHg 91%
06:00 +18°C° 0 mm 2 mps 758 mmHg 87%
07:00 +19°C° 0 mm 2 mps 759 mmHg 83%
08:00 +21°C° 0 mm 3 mps 759 mmHg 69%
09:00 +24°C° 0 mm 3 mps 759 mmHg 55%
10:00 +26°C° 0 mm 4 mps 759 mmHg 41%
11:00 +27°C° 0 mm 3 mps 759 mmHg 40%
12:00 +28°C° 0 mm 3 mps 759 mmHg 38%
13:00 +29°C° 0 mm 3 mps 759 mmHg 37%
14:00 +29°C° 0 mm 2 mps 759 mmHg 38%
15:00 +29°C° 0 mm 2 mps 759 mmHg 40%
16:00 +29°C° 0 mm 2 mps 759 mmHg 41%
17:00 +26°C° 0 mm 2 mps 760 mmHg 51%
18:00 +24°C° 0 mm 2 mps 760 mmHg 62%
19:00 +21°C° 0 mm 2 mps 760 mmHg 72%
20:00 +19°C° 0 mm 2 mps 761 mmHg 77%
21:00 +19°C° 0 mm 1 mps 761 mmHg 83%
22:00 +15°C° 0 mm 0 mps 761 mmHg 89%
23:00 +15°C° 0 mm 0 mps 761 mmHg 90%

7 July, Tuesday

Time Temperature Precipitation Wind Pressure Humidity
00:00 +14°C° 0 mm 0 mps 762 mmHg 91%
01:00 +14°C° 0 mm 0 mps 762 mmHg 93%
02:00 +14°C° 0 mm 0 mps 762 mmHg 93%
03:00 +14°C° 0 mm 0 mps 762 mmHg 94%
04:00 +13°C° 0 mm 0 mps 762 mmHg 94%
05:00 +15°C° 0 mm 0 mps 762 mmHg 87%
06:00 +18°C° 0 mm 0 mps 762 mmHg 79%
07:00 +22°C° 0 mm 1 mps 762 mmHg 72%
08:00 +23°C° 0 mm 1 mps 762 mmHg 65%
09:00 +25°C° 0 mm 1 mps 762 mmHg 58%
10:00 +27°C° 0 mm 2 mps 762 mmHg 51%
11:00 +28°C° 0 mm 2 mps 761 mmHg 48%
12:00 +29°C° 0 mm 2 mps 761 mmHg 46%
13:00 +30°C° 0 mm 3 mps 761 mmHg 43%
14:00 +30°C° 0 mm 3 mps 760 mmHg 48%
15:00 +29°C° 0 mm 3 mps 760 mmHg 53%
16:00 +28°C° 0 mm 4 mps 760 mmHg 58%
17:00 +27°C° 0 mm 3 mps 760 mmHg 63%
18:00 +25°C° 0 mm 3 mps 760 mmHg 69%
19:00 +24°C° 0 mm 3 mps 760 mmHg 74%
20:00 +22°C° 0 mm 3 mps 760 mmHg 77%
21:00 +21°C° 0 mm 3 mps 760 mmHg 79%
22:00 +20°C° 0 mm 3 mps 760 mmHg 82%
23:00 +19°C° 0.2 mm 3 mps 760 mmHg 87%

8 July, Wednesday

Time Temperature Precipitation Wind Pressure Humidity
00:00 +19°C° 0.2 mm 3 mps 759 mmHg 91%
01:00 +19°C° 0.2 mm 3 mps 759 mmHg 96%
02:00 +19°C° 0.5 mm 3 mps 759 mmHg 96%
03:00 +19°C° 0.5 mm 3 mps 758 mmHg 96%
04:00 +20°C° 0.5 mm 3 mps 758 mmHg 97%
05:00 +21°C° 0.2 mm 3 mps 758 mmHg 96%
06:00 +22°C° 0.2 mm 3 mps 758 mmHg 95%
07:00 +24°C° 0.2 mm 3 mps 758 mmHg 94%
08:00 +25°C° 0 mm 3 mps 758 mmHg 85%
09:00 +27°C° 0 mm 3 mps 758 mmHg 76%
10:00 +29°C° 0 mm 3 mps 758 mmHg 68%
11:00 +30°C° 1.1 mm 3 mps 757 mmHg 71%
12:00 +30°C° 1.1 mm 3 mps 757 mmHg 74%
13:00 +31°C° 1.1 mm 3 mps 756 mmHg 77%
14:00 +30°C° 1.9 mm 3 mps 756 mmHg 79%
15:00 +30°C° 1.9 mm 3 mps 756 mmHg 81%
16:00 +30°C° 1.9 mm 3 mps 756 mmHg 84%
17:00 +28°C° 0.8 mm 2 mps 756 mmHg 85%
18:00 +27°C° 0.8 mm 2 mps 756 mmHg 87%
19:00 +26°C° 0.8 mm 2 mps 756 mmHg 88%
20:00 +26°C° 0 mm 2 mps 756 mmHg 90%
21:00 +25°C° 0 mm 2 mps 756 mmHg 91%
22:00 +25°C° 0 mm 2 mps 756 mmHg 93%
23:00 +24°C° 0 mm 2 mps 756 mmHg 94%

9 July, Thursday

Time Temperature Precipitation Wind Pressure Humidity
00:00 +24°C° 0 mm 2 mps 756 mmHg 94%
01:00 +23°C° 0 mm 2 mps 756 mmHg 95%
02:00 +23°C° 0 mm 2 mps 757 mmHg 96%
03:00 +23°C° 0 mm 2 mps 757 mmHg 96%
04:00 +22°C° 0 mm 1 mps 757 mmHg 97%
05:00 +24°C° 0 mm 1 mps 757 mmHg 93%
06:00 +25°C° 0 mm 1 mps 757 mmHg 90%
07:00 +26°C° 0 mm 1 mps 758 mmHg 86%
08:00 +29°C° 0.1 mm 1 mps 758 mmHg 76%
09:00 +32°C° 0.1 mm 1 mps 758 mmHg 66%
10:00 +32°C° 0.1 mm 0 mps 758 mmHg 56%
11:00 +35°C° 0 mm 1 mps 758 mmHg 50%
12:00 +36°C° 0 mm 1 mps 757 mmHg 45%
13:00 +38°C° 0 mm 2 mps 757 mmHg 39%
14:00 +37°C° 0 mm 2 mps 757 mmHg 42%
15:00 +37°C° 0 mm 2 mps 757 mmHg 46%
16:00 +36°C° 0 mm 2 mps 757 mmHg 49%
17:00 +34°C° 0 mm 3 mps 757 mmHg 56%
18:00 +33°C° 0 mm 3 mps 757 mmHg 62%
19:00 +30°C° 0 mm 3 mps 757 mmHg 69%
20:00 +29°C° 0 mm 3 mps 758 mmHg 72%
21:00 +28°C° 0 mm 3 mps 758 mmHg 75%
22:00 +27°C° 0 mm 3 mps 758 mmHg 78%
23:00 +26°C° 0 mm 3 mps 758 mmHg 80%
Show more